Location: Faulungen
(51.1941°N, 10.2595°E)
Time: 17:33:00
(UTC+00:00)

Daily predictions for brighter satellites

Satellite Brightness Start Highest point End
(mag) Time Altitude Azimuth Time Altitude Azimuth Time Altitude Azimuth
Cosmos 1025 Rocket 3.5 20:21:52 10° SSE 20:25:54 43° E 20:29:58 10° NNE
ERS-1 Rocket 3.1 20:25:24 10° SSE 20:30:24 69° ENE 20:35:26 10° N
Cosmos 1140 Rocket 3.7 20:26:49 10° NNW 20:32:02 71° WSW 20:37:11 10° SSE
Cosmos 1953 4.1 20:30:59 10° NNW 20:34:26 29° W 20:37:53 10° SSW
NOSS 2-1 (E) 4.5 20:31:18 10° NW 20:35:22 50° NE 20:41:00 10° ESE
Cosmos 1943 3.5 20:32:46 10° SW 20:38:27 76° WNW 20:44:08 10° NNE
CZ-2C R/B 4.1 20:36:02 10° NNE 20:40:31 45° E 20:44:53 10° S
Cosmos 1603 3.9 20:36:42 10° SSW 20:42:25 79° WNW 20:48:12 10° NNE
Lacrosse 5 2.2 20:37:26 10° WNW 20:42:33 69° NNE 20:47:39 10° ESE
H-2A R/B 4.0 20:42:22 10° N 20:46:14 33° WNW 20:50:10 10° SW
Cosmos 1975 Rocket 3.1 20:42:07 10° S 20:46:34 83° E 20:51:03 10° NNE
Helios 1A Rocket 3.1 20:44:19 10° S 20:48:21 74° WSW 20:52:28 10° NNW
Cosmos 1954 Rocket 4.1 20:43:51 10° NNW 20:49:11 75° ENE 20:54:15 11° SSE
Ariane Rocket 4.4 20:45:14 10° SSW 20:49:52 34° W 20:54:32 10° NNW
Resurs 01 Rocket 3.9 20:51:12 10° SW 20:54:31 20° W 20:57:52 10° NW
Lacrosse 4 Rocket 2.8 20:54:35 10° WSW 20:58:32 42° NW 21:02:26 10° NNE
Tiangong 3.0 20:57:50 10° SSW 20:59:35 14° S 21:00:12 13° SSE
Cosmos 2228 4.1 20:57:07 10° N 21:00:57 31° ENE 21:04:23 12° SE
Cosmos 1544 Rocket 3.5 20:59:09 10° N 21:03:31 90° SW 21:07:38 11° S
Cosmos 1703 4.4 21:03:35 13° SE 21:06:19 28° E 21:09:37 10° NNE
FALCON 9 DEB 3.0 21:04:01 10° SW 21:07:13 56° SSE 21:10:27 10° ENE
Terra 2.0 21:02:54 10° S 21:07:39 74° WSW 21:12:27 10° NNW
USA 267 3.3 21:02:07 10° ENE 21:08:36 60° SE 21:15:03 10° SW
SL-8 R/B 3.7 21:04:20 10° WSW 21:09:05 61° S 21:13:51 10° E
Cosmos 1980 Rocket 4.1 21:05:49 10° NNW 21:10:24 24° NE 21:14:56 10° E
Cosmos 1455 2.2 21:07:30 10° NNW 21:11:18 80° W 21:14:42 13° S
Meteor 1-24 Rocket 3.7 21:07:56 10° SSW 21:13:15 83° WNW 21:18:41 10° NNE
Cosmos 2315 Rocket 4.3 21:08:08 10° SSW 21:14:28 72° WNW 21:20:48 10° N
Cosmos 1697 Rocket 3.8 21:10:06 10° NNW 21:15:20 37° NE 21:20:31 10° ESE
NOSS 2-1 (C) 3.9 21:12:36 10° NW 21:16:53 89° SW 21:22:11 13° SE
Cosmos 1371 Rocket 4.0 21:14:02 10° SSW 21:19:16 89° ESE 21:24:36 10° NNE
RESURS DK-1 3.6 21:15:36 10° NNW 21:19:24 34° NE 21:23:12 10° ESE
Cosmos 1452 Rocket 4.4 21:17:03 14° SSE 21:20:55 32° ESE 21:25:34 10° NE
Spot 2 Rocket 4.5 21:16:12 10° SSW 21:20:59 42° W 21:25:51 10° NNW
NOSS 2-1 (D) 3.9 21:22:56 10° NW 21:27:16 78° SW 21:32:17 15° SE
ARIANE 5 R/B 3.0 21:23:37 12° S 21:27:39 61° WSW 21:32:06 10° NNW
ASTEX 1 4.2 21:23:52 10° NNE 21:28:33 38° E 21:32:06 16° SSE
Lacrosse 5 rocket 1.6 21:25:13 10° WNW 21:28:58 50° SW 21:31:47 18° SSE
Cosmos 2084 3.5 21:27:31 10° SSW 21:31:10 43° SE 21:34:52 10° NE
Cosmos 2074 Rocket 4.1 21:30:17 10° N 21:36:37 85° W 21:42:02 14° S
ATLAS 2AS CENTAUR R/B 2.9 21:32:27 10° NW 21:39:31 64° SW 21:44:51 16° SSE
Cosmos 1624 Rocket 4.3 21:35:53 10° SSW 21:41:06 69° WNW 21:46:21 10° NNE
Cosmos 1656 3.6 21:37:11 10° NNW 21:42:40 88° WSW 21:46:54 18° SSE
GP-B 3.9 21:38:42 10° NNE 21:42:50 37° E 21:45:39 18° SE
USA 234 3.4 21:38:52 14° SE 21:44:31 61° SW 21:51:01 10° WNW
Cosmos 1833 Rocket 3.6 21:44:37 17° SSE 21:47:58 31° ESE 21:52:51 10° NE
Cosmos 2154 Rocket 4.0 21:49:41 10° N 21:55:58 85° W 22:00:52 17° S
Cosmos 1271 Rocket 4.4 21:54:33 10° NNW 21:57:58 27° W 22:01:15 10° SSW
Nadezhda 1 Rocket 3.9 21:54:38 16° S 21:59:41 77° E 22:05:47 10° NNE
Cosmos 2056 Rocket 4.4 21:55:41 10° SW 22:00:55 51° WNW 22:06:15 10° NNE
Cosmos 2082 Rocket 3.8 21:59:43 14° SE 22:02:15 19° E 22:06:04 10° ENE
Cosmos 1741 Rocket 4.1 21:57:59 10° NNW 22:03:19 79° WSW 22:07:02 20° SSE
Cosmos 2344 4.2 21:59:49 10° NW 22:08:24 84° NE 22:20:22 10° SE
Cosmos 1607 4.3 22:12:39 10° SW 22:18:52 69° NW 22:25:04 10° NE
Cosmos 968 Rocket 3.9 22:19:31 10° NNW 22:24:39 58° ENE 22:28:30 18° SE
Cosmos 1606 Rocket 3.8 22:20:32 10° NNW 22:24:49 61° W 22:27:26 22° S
H-2A R/B 3.9 22:21:05 10° NNE 22:25:09 46° E 22:27:16 25° SSE
Lacrosse 5 2.6 22:20:38 10° WNW 22:25:21 38° SW 22:27:55 23° S
COSMOS 2406 3.9 22:25:01 21° SSE 22:28:13 38° ESE 22:33:30 10° NE
Cosmos 724 4.3 22:26:21 10° SW 22:32:10 82° NW 22:38:01 10° NE
Meteor 1-11 4.4 22:30:33 22° S 22:34:13 62° E 22:39:45 10° NNE
SL-8 Rocket 4.0 22:28:53 10° N 22:35:12 79° E 22:39:30 21° SSE
Cosmos 2369 3.8 22:31:10 10° NNW 22:36:56 75° ENE 22:41:14 18° SE
TSX-5 4.4 22:33:04 13° SW 22:37:00 83° NW 22:42:47 10° NNE
SJ 16-02 3.9 22:35:27 10° N 22:38:08 16° NE 22:40:49 10° E
Cosmos 2228 4.4 22:34:43 10° NNW 22:38:25 30° W 22:41:10 15° SW
Cosmos 2218 Rocket 4.2 22:32:22 10° N 22:38:48 72° ENE 22:43:17 21° SSE
Cosmos 1328 4.1 22:37:11 21° SSW 22:39:45 66° WNW 22:43:46 10° N
Cosmos 2341 Rocket 4.0 22:34:19 10° N 22:40:44 83° W 22:45:04 22° S
SL-16 R/B 3.9 22:37:08 10° NNW 22:42:05 29° NE 22:47:00 10° ESE
FALCON 9 DEB 3.4 22:40:16 10° W 22:43:32 63° N 22:46:47 10° ENE
Cosmos 1408 2.4 22:43:33 32° S 22:45:00 73° E 22:48:28 10° NNE
Terra 4.4 22:45:06 10° W 22:46:16 11° W 22:47:27 10° WNW
Cosmos 1825 3.0 22:46:54 25° SE 22:48:25 37° E 22:51:54 10° NNE
Cosmos 2366 rocket 4.0 22:42:07 10° N 22:48:27 82° E 22:52:47 22° SSE
ALOS 2 2.6 22:46:37 26° S 22:49:03 73° WSW 22:53:28 10° NNW
Cosmos 1900 4.4 22:45:06 10° NW 22:50:17 76° SW 22:53:34 22° SSE
Cosmos 1867 4.0 22:45:13 10° NW 22:50:40 61° NE 22:56:04 10° SE
Cosmos 1726 Rocket 4.3 22:47:05 10° NNW 22:51:10 42° W 22:53:36 21° SSW
SL-8 R/B 3.8 22:46:39 10° W 22:51:22 55° SSW 22:56:05 10° ESE
USA 267 3.6 22:45:14 10° ENE 22:51:43 69° NNW 22:58:13 10° W
Cosmos 1980 Rocket 2.2 22:49:28 10° NNW 22:55:14 88° ENE 22:59:14 20° SSE
RESURS DK-1 3.3 22:53:39 10° NW 22:57:24 34° WSW 22:59:03 24° SSW
Cosmos 1697 Rocket 3.1 22:54:04 10° NW 22:59:29 49° WSW 23:02:42 23° S
Cosmos 1812 Rocket 4.3 22:56:47 10° N 23:01:07 46° ENE 23:03:53 20° SE
Cosmos 1331 Rocket 4.2 22:57:22 16° SSW 23:01:36 73° WNW 23:06:57 10° NNE
Cosmos 1452 Rocket 4.4 22:57:50 10° SW 23:02:53 46° WNW 23:07:58 10° NNE
ERS-2 2.1 23:04:23 10° NNE 23:07:58 65° ESE 23:09:26 33° S
Cosmos 1892 2.7 23:06:34 28° SSW 23:08:23 72° WNW 23:12:10 10° N
ADEOS Rocket 3.6 23:05:35 21° S 23:10:25 67° WSW 23:17:59 10° NNW
USA 276 2.0 23:10:14 47° S 23:10:32 49° SSE 23:13:22 10° E
Cosmos 2084 Rocket 3.1 23:06:42 10° NW 23:10:36 89° S 23:13:11 21° SE
In-Cosmos 22 Rocket 4.2 23:08:20 23° S 23:11:57 82° E 23:17:30 10° NNE
Cosmos 2058 Rocket 3.8 23:10:16 10° NNW 23:14:25 42° W 23:16:43 23° SSW
Cosmos 1602 Rocket 4.0 23:15:24 26° SSE 23:17:33 51° E 23:21:45 10° NNE
Aureole 1 Rocket 4.5 23:11:52 10° NNW 23:18:14 71° ENE 23:25:14 14° SSE
Cosmos 2181 Rocket 4.0 23:15:18 21° SSW 23:19:32 78° W 23:25:46 10° N
Cosmos 2278 3.7 23:17:28 10° NNW 23:23:14 87° ENE 23:27:30 19° SSE
Cosmos 2322 Rocket 3.5 23:19:01 10° NNW 23:24:19 39° NE 23:29:37 10° ESE
Cosmos 1302 Rocket 4.0 23:21:10 22° SSW 23:24:36 88° WNW 23:29:51 10° NNE
Cosmos 192 4.4 23:21:56 21° SSW 23:25:11 79° WNW 23:30:07 10° NNE
ATLAS 2AS CENTAUR R/B 4.5 23:25:26 10° WNW 23:29:00 15° WSW 23:32:16 10° SW
Cosmos 1833 Rocket 3.3 23:26:16 11° SW 23:31:38 54° NW 23:37:11 10° NNE
CZ-2D R/B 4.3 23:32:03 10° NE 23:34:45 14° E 23:37:25 10° ESE
Geosat 4.0 23:35:57 18° SSE 23:39:43 89° WSW 23:44:47 10° NNW
BREEZE-M DEB (TANK) 4.2 23:37:05 10° W 23:40:53 69° S 23:57:19 10° ESE
Okean 1-7 Rocket 4.0 23:39:49 23° SSW 23:42:24 56° WNW 23:46:49 10° N
Cosmos 1626 Rocket 3.8 23:42:03 25° SSW 23:44:28 61° WNW 23:48:47 10° N
Cosmos 2082 Rocket 2.2 23:41:32 20° SSW 23:45:36 87° WNW 23:51:21 10° NNE
Cosmos 1821 Rocket 4.0 23:40:24 10° NNW 23:46:44 78° W 23:50:56 22° S
Cosmos 1869 4.3 23:45:48 10° NNW 23:49:17 33° W 23:50:55 23° SW
ATLAS 5 CENTAUR R/B 2.5 23:51:03 22° SSE 23:52:10 26° ESE 23:55:37 10° ENE
Cosmos 1238 4.2 23:52:31 36° S 23:53:34 68° E 23:56:36 10° NNE
Cosmos-2242 3.0 23:51:02 10° NNW 23:55:16 67° W 23:57:29 27° S
